Orbital Elements at Epoch 2459200.5 (2020-Dec-17.0) TDB
Reference: JPL 22 (heliocentric ecliptic J2000)
Element | Value | Uncertainty (1-sigma) | Units |
e | .408080676379785 | 5.6599e-08 | |
a | 3.00136996005041 | 2.0755e-08 | au |
q | 1.77656887668707 | 1.7497e-07 | au |
i | 16.11671451012761 | 7.5821e-06 | deg |
node | 7.505102581851609 | 1.5724e-05 | deg |
peri | 306.5878110635615 | 1.7576e-05 | deg |
M | 16.73864356976173 | 5.7449e-06 | deg |
tp | 2459112.192928021546 (2020-Sep-19.69292802) | 2.9924e-05 | TDB |
period | 1899.230710048258 5.20 | 1.97e-05 5.394e-08 | d yr |
n | .1895504311800291 | 1.9662e-09 | deg/d |
Q | 4.22617104341375 | 2.9225e-08 | au |
|
| | Orbit Determination Parameters
Additional Information
|